TimeCST,TemperatureF,Dew PointF,Humidity,Sea Level PressureIn,VisibilityMPH,Wind Direction,Wind SpeedMPH,Gust SpeedMPH,PrecipitationIn,Events,Conditions,WindDirDegrees,DateUTC
12:53 AM,10.9,8.1,88,30.19,10.0,SSW,3.5,-,N/A,,Overcast,200,2013-12-13 06:53:00
1:53 AM,10.0,7.0,87,30.18,9.0,SSW,4.6,-,N/A,,Scattered Clouds,200,2013-12-13 07:53:00
2:53 AM,9.0,6.1,88,30.17,8.0,Calm,Calm,-,N/A,,Clear,0,2013-12-13 08:53:00
3:53 AM,10.0,8.1,92,30.16,8.0,ESE,3.5,-,N/A,,Clear,110,2013-12-13 09:53:00
4:53 AM,12.0,9.0,88,30.16,8.0,SSE,3.5,-,N/A,,Clear,160,2013-12-13 10:53:00
5:53 AM,12.9,10.0,88,30.15,8.0,Calm,Calm,-,N/A,,Clear,0,2013-12-13 11:53:00
6:53 AM,9.0,6.1,88,30.16,7.0,Calm,Calm,-,N/A,,Clear,0,2013-12-13 12:53:00
7:53 AM,10.0,8.1,92,30.17,5.0,NE,8.1,-,N/A,,Clear,40,2013-12-13 13:53:00
8:53 AM,12.0,9.0,88,30.16,5.0,NNE,8.1,-,N/A,,Clear,30,2013-12-13 14:53:00
9:53 AM,15.1,12.0,88,30.16,6.0,NE,5.8,-,N/A,,Clear,40,2013-12-13 15:53:00
10:53 AM,21.0,14.0,74,30.14,8.0,North,-9999.0,-,N/A,,Clear,0,2013-12-13 16:53:00
11:53 AM,23.0,16.0,74,30.13,9.0,ESE,10.4,-,N/A,,Clear,110,2013-12-13 17:53:00
12:53 PM,25.0,17.1,72,30.11,10.0,East,10.4,-,N/A,,Clear,80,2013-12-13 18:53:00
1:53 PM,23.0,16.0,74,30.10,9.0,NE,12.7,-,N/A,,Clear,50,2013-12-13 19:53:00
2:53 PM,23.0,16.0,74,30.10,9.0,ENE,12.7,-,N/A,,Clear,60,2013-12-13 20:53:00
3:53 PM,23.0,16.0,74,30.10,10.0,ENE,15.0,-,N/A,,Clear,60,2013-12-13 21:53:00
4:53 PM,21.9,16.0,78,30.12,10.0,ENE,10.4,-,N/A,,Clear,60,2013-12-13 22:53:00
5:53 PM,21.9,17.1,82,30.12,9.0,NE,12.7,-,N/A,,Clear,50,2013-12-13 23:53:00
6:22 PM,21.2,17.6,86,30.07,9.0,ENE,12.7,-,N/A,,Mostly Cloudy,60,2013-12-14 00:22:00
6:53 PM,23.0,18.0,81,30.14,9.0,ENE,10.4,-,N/A,,Overcast,60,2013-12-14 00:53:00
7:53 PM,23.0,19.0,85,30.15,10.0,ENE,17.3,21.9,N/A,,Overcast,60,2013-12-14 01:53:00
8:53 PM,23.0,19.9,88,30.15,10.0,ENE,12.7,24.2,N/A,,Overcast,60,2013-12-14 02:53:00
9:27 PM,21.2,19.4,93,30.09,10.0,NE,16.1,24.2,N/A,,Overcast,50,2013-12-14 03:27:00
9:53 PM,19.9,17.1,89,30.14,10.0,NE,17.3,-,N/A,,Overcast,40,2013-12-14 03:53:00
10:53 PM,18.0,16.0,92,30.15,10.0,NE,16.1,-,N/A,,Overcast,40,2013-12-14 04:53:00
11:53 PM,18.0,16.0,92,30.15,10.0,NE,15.0,-,N/A,,Overcast,40,2013-12-14 05:53:00